STARLINK-34462

导读 | 星芒AI

STARLINK-34462 是由 SpaceX 开发并部署的星链(Starlink)卫星网络中的一颗低轨通信卫星。该卫星属于星链计划的第二批任务(50 星座)之一,于 2022 年发射,旨在为全球用户提供高速互联网服务。它运行在约 550 公里的轨道高度,设计用于支持星链系统的宽带通信功能。该卫星采用标准化设计,配备有可展开的太阳能电池板和先进通信设备,能够与其他星链卫星进行激光链路通信,提升网络效率和覆盖范围。

基本信息
目录编号:
64493
目录名称:
STARLINK-34462
国际标识:
2025-133X
轨道中心:
EARTH
卫星名称:
STARLINK-34462
卫星全名:
STARLINK-34462
卫星状态:
在轨 (已飞行139 天)
发射日期:
2025-06-23 UTC
国别 :
美国 (US)
星等 :
--
轨道信息
数据来源 国际轨道数据
星历时间: 2025-11-09T01:44:19+0800
21小时前
查看轨道信息
半长轴: 6825.147km
偏心率: 0.0001875
轨道倾角: 53.160°
近地点辐角 87.040°
升交点赤经 319.070°
平近点角 273.082°
近地点: 445.732km
远地点: 448.292km
周期: 93.525分钟
每日圈数: 15.396955
详细信息
使用方式:
暂无
2D轨道图
3D轨道图
轨道高度分析图
轨道倾角分析图
轨道综合分析图
查看轨道综合分析图